Home > Weather > Faro > Past weeks

Flag for Portugal Weather for the Past 2 Weeks in Faro, Portugal

Now
63 °F

Broken clouds.


Feels Like: 63 °F
Forecast: 57 / 63 °F
Wind: 16 mph from West

Location: Faro / Aeroporto

Current Time: Feb 10, 2016 at 1:56:24 PM

Latest Report: Feb 10, 2016 at 1:30 PM


Visibility: N/A

Pressure: 30.21 "Hg

Humidity: 94%

Dew point: 61 °F

Location of FaroLocation

Historic Weather in Faro — Graph

°F

Faro Temperature Yesterday

Maximum temperature yesterday: 64 °F (at 12:00 PM)
Minimum temperature yesterday: 57 °F (at 12:00 AM)
Average temperature yesterday: 60 °F

High & Low Weather Summary for the Past Weeks

 TemperatureHumidityPressure
High68 °F (Feb 1, 12:30 PM)100% (Feb 7, 2:00 AM)30.60 "Hg (Feb 7, 2:00 AM)
Low46 °F (Jan 27, 6:30 AM)48% (Feb 4, 4:00 AM)30.12 "Hg (Feb 6, 5:30 AM)
Average57 °F79%30.37 "Hg
* Reported Jan 26 12:00 Noon — Feb 10 12:30 PM, Faro, Weather by CustomWeather, © 2016

Note: Actual official high and low records may vary slightly from our data, if they occured in-between our weather recording intervals... More about our weather records

Advertising

Faro Weather History for the Previous 24 Hours

 ConditionsComfort  
Time TempWeatherWind HumidityBarometerVisibility
12:30 PM
Wed, Feb 10
63 °FPartly sunny.12 mph83%30.27 "HgN/A
12:00 PM63 °FPartly sunny.16 mph83%30.27 "HgN/A
11:30 AM63 °FPartly sunny.16 mph88%30.30 "HgN/A
11:00 AM63 °FPartly sunny.14 mph83%30.30 "HgN/A
10:30 AM61 °FPartly sunny.16 mph88%30.30 "HgN/A
10:00 AM63 °FPartly sunny.14 mph83%30.30 "HgN/A
9:30 AM63 °FPartly sunny.13 mph83%30.30 "HgN/A
9:00 AM61 °FPartly sunny.12 mph88%30.30 "HgN/A
8:30 AM61 °FPartly sunny.12 mph88%30.30 "HgN/A
8:00 AM59 °FPartly sunny.12 mph88%30.30 "HgN/A
7:30 AM59 °FPartly sunny.15 mph88%30.30 "HgN/A
7:00 AM59 °FPassing clouds.12 mph88%30.27 "HgN/A
6:30 AM59 °FPassing clouds.12 mph94%30.30 "HgN/A
6:00 AM59 °FPassing clouds.12 mph94%30.30 "HgN/A
5:30 AM59 °FPassing clouds.13 mph94%30.27 "HgN/A
5:00 AM59 °FPassing clouds.13 mph94%30.27 "HgN/A
4:30 AM59 °FPassing clouds.13 mph94%30.30 "HgN/A
4:00 AM59 °FPassing clouds.13 mph94%30.30 "HgN/A
3:30 AM61 °FPartly cloudy.12 mph88%30.30 "HgN/A
3:00 AM61 °FPassing clouds.13 mph88%30.30 "Hg5 mi
2:30 AM61 °FPassing clouds.13 mph94%30.30 "HgN/A
2:00 AM61 °FPassing clouds.14 mph94%30.33 "HgN/A
1:30 AM61 °FPassing clouds.13 mph88%30.33 "HgN/A
12:30 AM61 °FPassing clouds.12 mph88%30.36 "HgN/A
12:00 AM61 °FPassing clouds.10 mph88%30.36 "HgN/A
11:30 PM
Tue, Feb 9
61 °FPassing clouds.12 mph88%30.36 "HgN/A
11:00 PM61 °FPassing clouds.12 mph88%30.36 "HgN/A
10:30 PM61 °FPassing clouds.14 mph88%30.36 "HgN/A
9:30 PM61 °FPartly cloudy.14 mph94%30.36 "HgN/A
9:00 PM61 °FPassing clouds.14 mph94%30.36 "HgN/A
8:30 PM61 °FPassing clouds.15 mph88%30.36 "HgN/A
8:00 PM61 °FPartly cloudy.17 mph88%30.36 "HgN/A
7:30 PM61 °FPartly cloudy.16 mph88%30.36 "HgN/A
7:00 PM59 °FPartly cloudy.15 mph94%30.36 "HgN/A
6:30 PM61 °FDrizzle. Fog.14 mph94%30.36 "Hg2 mi
6:00 PM61 °FPartly sunny.14 mph94%30.33 "HgN/A
5:30 PM61 °FBroken clouds.16 mph94%30.33 "HgN/A
5:00 PM61 °FBroken clouds.16 mph88%30.33 "HgN/A
4:30 PM61 °FPartly sunny.16 mph94%30.33 "HgN/A
4:00 PM61 °FBroken clouds.17 mph94%30.36 "HgN/A
3:30 PM61 °FScattered showers. Broken clouds.20 mph88%30.36 "HgN/A
3:00 PM61 °FScattered showers. Broken clouds.22 mph94%30.33 "HgN/A
2:30 PM61 °FDrizzle. Broken clouds.20 mph94%30.36 "Hg5 mi
2:00 PM63 °FBroken clouds.18 mph88%30.36 "HgN/A
1:30 PM61 °FBroken clouds.18 mph94%30.36 "HgN/A
1:00 PM61 °FLight rain. Broken clouds.20 mph88%30.39 "Hg4 mi
Weather by CustomWeather, © 2016

See weather overviewHow to use our weather pages